[[{"header":{"parameterUnit":"m.s-1","parameterCategory":1,"la1":30.2992,"la2":30.254,"lo1":-89.0895,"lo2":-89.0443,"dy":0.0025,"dx":0.0025,"nx":19,"ny":19,"refTime":"2026-04-12T09:00:00:Z","depth":0,"parameterNumber":2,"parameterNumberName":"U-component_of_WINDS"},"data":[0,0,0,-3.2607,-3.261,-3.2732,-3.2732,-3.2891,-3.2892,0,0,0,0,0,0,0,0,0,0,0,-3.2573,-3.2574,-3.2607,-3.261,-3.2732,-3.2732,-3.289,-3.2892,0,0,0,0,0,0,0,0,0,0,0,-3.2572,-3.2574,-3.2575,-3.261,-3.2732,-3.2732,-3.289,-3.2797,0,0,0,0,0,0,0,0,0,0,-3.2678,-3.2649,-3.2574,-3.2575,-3.2611,-3.2732,-3.2732,-3.2792,-3.2803,-3.2836,0,-3.2868,0,-3.2883,-3.2903,-3.2903,0,0,0,-3.2608,-3.2641,-3.2671,-3.2576,-3.2612,-3.2732,-3.2676,-3.2798,-3.281,-3.285,-3.287,-3.2876,-3.2885,-3.2904,-3.2905,-3.3108,-3.3109,0,0,-3.2601,-3.2596,-3.2663,-3.2679,-3.2662,-3.2672,-3.268,-3.2805,-3.2826,-3.2871,-3.288,-3.2888,-3.2905,-3.2906,-3.3107,-3.3108,0,0,0,-3.2583,-3.2592,-3.2619,-3.2673,-3.2695,-3.2676,-3.2685,-3.2821,-3.283,-3.2881,-3.289,-3.2906,-3.2908,-3.3106,-3.3107,-3.3153,0,0,0,-3.2579,-3.2581,-3.2616,-3.2615,-3.2692,-3.276,-3.2698,-3.2822,-3.2836,-3.2889,-3.2906,-3.2909,-3.3105,-3.3107,-3.315,-3.3175,0,0,0,-3.2564,-3.2579,-3.2598,-3.2614,-3.2667,-3.2758,-3.2774,-3.2825,-3.2841,-3.2904,-3.291,-3.3104,-3.3106,-3.3146,-3.317,-3.3226,0,0,0,-3.2547,-3.2638,-3.2599,-3.2703,-3.2666,-3.2786,-3.2773,-3.2863,-3.2922,-3.2907,-3.3105,-3.3107,-3.3145,-3.3167,-3.3222,-3.3271,-3.3291,0,0,-3.2658,-3.2651,-3.2713,-3.2681,-3.2807,-3.2768,-3.29,-3.2959,-3.2969,-3.3061,-3.3066,-3.3151,-3.3169,-3.3225,-3.341,-3.3426,0,0,0,-3.2746,-3.279,-3.2825,-3.2881,-3.2928,-3.297,-3.3009,-3.3031,-3.3109,-3.3016,-3.3187,-3.3199,-3.3231,-3.3255,-3.3268,-3.3296,-3.3118,-3.3118,-3.3118,-3.2896,-3.2904,-3.3006,-3.3029,-3.3084,-3.3123,-3.3167,-3.3203,-3.3196,-3.3236,-3.3262,-3.3374,-3.3401,-3.3411,-3.344,-3.3291,-3.3291,-3.3291,-3.3291,-3.3058,-3.3121,-3.3109,-3.3203,-3.3211,-3.329,-3.3331,-3.3323,-3.3397,-3.3355,-3.3384,-3.3335,-3.3429,-3.3454,-3.3295,-3.3294,-3.3294,-3.3293,-3.3293,-3.3156,-3.3187,-3.3212,-3.3293,-3.3355,-3.3375,-3.3446,-3.3451,-3.3456,-3.3486,-3.3513,-3.3512,-3.351,-3.3499,-3.3499,-3.3499,-3.35,-3.35,-3.35,-3.3246,-3.3273,-3.3332,-3.339,-3.3426,-3.3474,-3.3513,-3.3549,-3.3589,-3.3587,-3.3587,-3.3574,-3.3437,-3.3401,-3.3506,-3.3505,-3.3504,-3.3504,-3.3503,-3.3404,-3.3369,-3.3461,-3.3497,-3.3564,-3.3624,-3.363,-3.3701,-3.3731,-3.3765,-3.3747,-3.3645,-3.3638,-3.3627,-3.3597,-3.3746,-3.3746,-3.3746,-3.3746,-3.3485,-3.3482,-3.3576,-3.3633,-3.369,-3.3704,-3.3806,-3.3838,-3.3864,-3.3883,-3.3863,-3.3824,-3.3813,-3.3812,-3.3797,-3.3769,-3.3959,-3.3959,-3.3959,-3.3582,-3.3584,-3.3671,-3.3697,-3.3749,-3.3793,-3.3889,-3.3954,-3.3977,-3.3968,-3.3897,-3.3888,-3.3826,-3.3806,-3.3794,-3.3771,-3.372,0,0]},{"header":{"parameterUnit":"m.s-1","parameterCategory":1,"la1":30.2992,"la2":30.254,"lo1":-89.0895,"lo2":-89.0443,"dy":0.0025,"dx":0.0025,"nx":19,"ny":19,"refTime":"2026-04-12T09:00:00:Z","depth":0,"parameterNumber":3,"parameterNumberName":"V-component_of_WINDS"},"data":[0,0,0,2.6152,2.6154,2.6243,2.6243,2.6356,2.6357,0,0,0,0,0,0,0,0,0,0,0,2.6125,2.6126,2.6152,2.6154,2.6243,2.6244,2.6356,2.6357,0,0,0,0,0,0,0,0,0,0,0,2.6125,2.6125,2.6126,2.6154,2.6243,2.6244,2.6356,2.6289,0,0,0,0,0,0,0,0,0,0,2.6202,2.6177,2.6125,2.6126,2.6155,2.6243,2.6244,2.6285,2.6293,2.6315,0,2.6335,0,2.6348,2.6364,2.6365,0,0,0,2.6154,2.6171,2.6195,2.6127,2.6156,2.6243,2.6203,2.629,2.6298,2.6325,2.6337,2.6341,2.635,2.6365,2.6366,2.6497,2.6497,0,0,2.6149,2.614,2.619,2.6201,2.6188,2.62,2.6206,2.6295,2.6307,2.6337,2.6344,2.6352,2.6366,2.6367,2.6496,2.6497,0,0,0,2.6135,2.6137,2.616,2.6196,2.6213,2.6203,2.6209,2.6303,2.6311,2.6345,2.6353,2.6367,2.6368,2.6495,2.6496,2.6519,0,0,0,2.6132,2.6129,2.6157,2.6153,2.6211,2.6259,2.6215,2.6305,2.6315,2.6353,2.6367,2.6369,2.6495,2.6496,2.6517,2.653,0,0,0,2.6119,2.6127,2.614,2.6152,2.6191,2.6258,2.6271,2.6307,2.632,2.6365,2.6369,2.6494,2.6496,2.6515,2.6527,2.6563,0,0,0,2.6103,2.6158,2.614,2.6205,2.619,2.6271,2.627,2.6331,2.6372,2.6367,2.6495,2.6496,2.6514,2.6525,2.6561,2.659,2.6602,0,0,2.6167,2.6165,2.6204,2.6191,2.6274,2.6258,2.6344,2.6389,2.6401,2.6464,2.6467,2.6517,2.6527,2.6562,2.6672,2.6681,0,0,0,2.6221,2.6249,2.6273,2.6312,2.6349,2.6382,2.6415,2.6432,2.6486,2.6432,2.654,2.6546,2.6567,2.6582,2.659,2.6608,2.6503,2.6503,2.6503,2.6299,2.6312,2.6377,2.6402,2.644,2.6475,2.6507,2.6536,2.6537,2.6562,2.6581,2.6646,2.6663,2.6669,2.6688,2.6598,2.6598,2.6598,2.6598,2.6394,2.6435,2.6438,2.6501,2.6515,2.6568,2.6605,2.6604,2.6655,2.6633,2.6652,2.6625,2.6679,2.6696,2.66,2.66,2.66,2.6599,2.6599,2.6446,2.6468,2.6489,2.6549,2.6593,2.6616,2.6666,2.6677,2.6687,2.6706,2.6727,2.6726,2.6727,2.6715,2.6715,2.6716,2.6716,2.6716,2.6716,2.6491,2.6514,2.6556,2.6601,2.6628,2.6666,2.6703,2.673,2.6763,2.6766,2.6766,2.6765,2.6682,2.666,2.672,2.6719,2.6718,2.6718,2.6718,2.6582,2.6564,2.6628,2.6655,2.671,2.6754,2.6767,2.6822,2.6846,2.6871,2.6866,2.6803,2.6801,2.6795,2.6777,2.6863,2.6863,2.6863,2.6863,2.6626,2.6627,2.6695,2.6739,2.6783,2.6802,2.6874,2.6904,2.6931,2.6947,2.6936,2.6914,2.6907,2.691,2.6901,2.6885,2.6996,2.6996,2.6996,2.6682,2.6688,2.6747,2.6775,2.6819,2.6856,2.6924,2.6975,2.7002,2.7002,2.696,2.6954,2.6918,2.6906,2.6903,2.689,2.686,0,0]}]]